{"data":{"norad_id":48228,"epoch":"2026-09-20T00:34:36.141888Z","epoch_age_seconds":63115,"freshness":"FRESH","line1":"1 48228U 21031U   26263.02402942  .00000243  00000+0  61976-3 0  9993","line2":"2 48228  87.8899 270.7898 0001963  93.5084 266.6270 13.14501719260890","mean_motion":13.14501719,"eccentricity":0.0001963,"inclination_deg":87.8899,"raan_deg":270.7898,"arg_perigee_deg":93.5084,"mean_anomaly_deg":266.627,"bstar":0.00061976,"rev_number":26089,"period_min":109.54721315203,"perigee_km":1204.3057867243,"apogee_km":1207.2832382361,"semimajor_km":7583.9315124802,"source":"CELESTRAK","updated_at":"2026-09-20T09:00:44.595884Z"}}